Time,TemperatureF,DewpointF,PressureIn,WindDirection,WindDirectionDegrees,WindSpeedMPH,WindSpeedGustMPH,Humidity,HourlyPrecipIn,Conditions,Clouds,dailyrainin,SoftwareType,DateUTC
2013-11-08 00:02:00,30.2,15.6,31.78,NW,315,0.0,4.0,54,0.00,,,0.00,meteohub,2013-11-08 07:02:00,
2013-11-08 00:07:00,29.5,15.3,31.78,NE,45,1.0,4.0,55,0.00,,,0.00,meteohub,2013-11-08 07:07:00,
2013-11-08 00:12:00,28.6,14.5,31.78,North,0,0.0,3.0,55,0.00,,,0.00,meteohub,2013-11-08 07:12:00,
2013-11-08 00:17:00,27.9,12.0,31.78,SW,225,0.0,5.0,51,0.00,,,0.00,meteohub,2013-11-08 07:17:00,
2013-11-08 00:22:00,27.7,12.4,31.78,NE,45,0.0,5.0,52,0.00,,,0.00,meteohub,2013-11-08 07:22:00,
2013-11-08 00:27:00,27.5,12.2,31.78,NE,45,1.0,2.0,52,0.00,,,0.00,meteohub,2013-11-08 07:27:00,
2013-11-08 00:32:00,27.7,12.7,31.78,South,180,2.0,2.0,53,0.00,,,0.00,meteohub,2013-11-08 07:32:00,
2013-11-08 00:37:00,27.7,12.7,31.78,SW,225,0.0,4.0,53,0.00,,,0.00,meteohub,2013-11-08 07:37:00,
2013-11-08 00:42:00,27.9,12.9,31.77,NE,45,2.0,4.0,53,0.00,,,0.00,meteohub,2013-11-08 07:42:00,
2013-11-08 00:47:00,28.0,13.1,31.77,South,180,2.0,4.0,53,0.00,,,0.00,meteohub,2013-11-08 07:47:00,
2013-11-08 00:52:00,28.0,13.1,31.77,West,270,2.0,3.0,53,0.00,,,0.00,meteohub,2013-11-08 07:52:00,
2013-11-08 00:57:00,27.9,12.9,31.77,East,90,0.0,2.0,53,0.00,,,0.00,meteohub,2013-11-08 07:57:00,
2013-11-08 01:02:00,27.7,12.7,31.76,SW,225,2.0,4.0,53,0.00,,,0.00,meteohub,2013-11-08 08:02:00,
2013-11-08 01:07:00,27.7,12.7,31.77,SW,225,2.0,4.0,53,0.00,,,0.00,meteohub,2013-11-08 08:07:00,
2013-11-08 01:12:00,27.3,12.9,31.77,North,0,3.0,3.0,54,0.00,,,0.00,meteohub,2013-11-08 08:12:00,
2013-11-08 01:17:00,27.1,12.7,31.76,South,180,0.0,7.0,54,0.00,,,0.00,meteohub,2013-11-08 08:17:00,
2013-11-08 01:22:00,27.0,12.6,31.76,West,270,0.0,7.0,54,0.00,,,0.00,meteohub,2013-11-08 08:22:00,
2013-11-08 01:27:00,26.8,12.7,31.77,SW,225,0.0,7.0,55,0.00,,,0.00,meteohub,2013-11-08 08:27:00,
2013-11-08 01:32:00,26.6,12.6,31.76,South,180,0.0,0.0,55,0.00,,,0.00,meteohub,2013-11-08 08:32:00,
2013-11-08 01:37:00,26.6,12.6,31.75,South,180,0.0,0.0,55,0.00,,,0.00,meteohub,2013-11-08 08:37:00,
2013-11-08 01:42:00,26.2,12.7,31.75,East,90,0.0,0.0,56,0.00,,,0.00,meteohub,2013-11-08 08:42:00,
2013-11-08 01:47:00,26.1,12.6,31.75,North,0,0.0,0.0,56,0.00,,,0.00,meteohub,2013-11-08 08:47:00,
2013-11-08 01:52:00,26.2,13.1,31.75,NW,315,2.0,0.0,57,0.00,,,0.00,meteohub,2013-11-08 08:52:00,
2013-11-08 01:57:00,26.8,13.1,31.75,West,270,0.0,2.0,56,0.00,,,0.00,meteohub,2013-11-08 08:57:00,
2013-11-08 02:02:00,27.0,12.9,31.75,NW,315,2.0,4.0,55,0.00,,,0.00,meteohub,2013-11-08 09:02:00,
2013-11-08 02:07:00,27.0,12.9,31.75,SE,135,1.0,4.0,55,0.00,,,0.00,meteohub,2013-11-08 09:07:00,
2013-11-08 02:12:00,26.6,12.6,31.75,SW,225,0.0,2.0,55,0.00,,,0.00,meteohub,2013-11-08 09:12:00,
2013-11-08 02:17:00,26.4,12.9,31.75,West,270,4.0,4.0,56,0.00,,,0.00,meteohub,2013-11-08 09:17:00,
2013-11-08 02:22:00,26.6,12.6,31.75,South,180,0.0,4.0,55,0.00,,,0.00,meteohub,2013-11-08 09:22:00,
2013-11-08 02:27:00,26.8,12.7,31.75,West,270,0.0,4.0,55,0.00,,,0.00,meteohub,2013-11-08 09:27:00,
2013-11-08 02:32:00,27.0,12.9,31.75,SW,225,2.0,4.0,55,0.00,,,0.00,meteohub,2013-11-08 09:32:00,
2013-11-08 02:37:00,27.0,12.9,31.75,SW,225,0.0,3.0,55,0.00,,,0.00,meteohub,2013-11-08 09:37:00,
2013-11-08 02:42:00,27.0,12.9,31.75,NW,315,0.0,3.0,55,0.00,,,0.00,meteohub,2013-11-08 09:42:00,
2013-11-08 02:47:00,27.1,12.7,31.75,SW,225,0.0,2.0,54,0.00,,,0.00,meteohub,2013-11-08 09:47:00,
2013-11-08 02:52:00,27.5,13.1,31.74,SW,225,0.0,6.0,54,0.00,,,0.00,meteohub,2013-11-08 09:52:00,
2013-11-08 02:57:00,28.4,15.1,31.74,South,180,3.0,6.0,57,0.00,,,0.00,meteohub,2013-11-08 09:57:00,
2013-11-08 03:02:00,28.8,15.1,31.74,East,90,0.0,6.0,56,0.00,,,0.00,meteohub,2013-11-08 10:02:00,
2013-11-08 03:07:00,28.8,15.1,31.74,East,90,0.0,4.0,56,0.00,,,0.00,meteohub,2013-11-08 10:07:00,
2013-11-08 03:12:00,28.8,14.2,31.74,NE,45,0.0,4.0,54,0.00,,,0.00,meteohub,2013-11-08 10:12:00,
2013-11-08 03:17:00,28.6,14.0,31.74,SW,225,0.0,3.0,54,0.00,,,0.00,meteohub,2013-11-08 10:17:00,
2013-11-08 03:22:00,28.4,13.8,31.73,NE,45,0.0,3.0,54,0.00,,,0.00,meteohub,2013-11-08 10:22:00,
2013-11-08 03:27:00,28.4,13.8,31.73,NW,315,2.0,3.0,54,0.00,,,0.00,meteohub,2013-11-08 10:27:00,
2013-11-08 03:32:00,28.4,13.8,31.73,NE,45,1.0,3.0,54,0.00,,,0.00,meteohub,2013-11-08 10:32:00,
2013-11-08 03:37:00,28.4,13.5,31.73,SE,135,2.0,3.0,53,0.00,,,0.00,meteohub,2013-11-08 10:37:00,
2013-11-08 03:42:00,28.6,13.6,31.73,SW,225,4.0,4.0,53,0.00,,,0.00,meteohub,2013-11-08 10:42:00,
2013-11-08 03:47:00,29.5,13.6,31.72,West,270,8.0,8.0,51,0.00,,,0.00,meteohub,2013-11-08 10:47:00,
2013-11-08 03:52:00,31.1,13.3,31.72,East,90,3.0,8.0,47,0.00,,,0.00,meteohub,2013-11-08 10:52:00,
2013-11-08 03:57:00,31.8,13.5,31.72,East,90,1.0,8.0,46,0.00,,,0.00,meteohub,2013-11-08 10:57:00,
2013-11-08 04:02:00,30.4,12.6,31.72,South,180,2.0,8.0,47,0.00,,,0.00,meteohub,2013-11-08 11:02:00,
2013-11-08 04:07:00,29.1,12.4,31.72,West,270,2.0,8.0,49,0.00,,,0.00,meteohub,2013-11-08 11:07:00,
2013-11-08 04:12:00,28.2,10.0,31.72,NE,45,0.0,3.0,46,0.00,,,0.00,meteohub,2013-11-08 11:12:00,
2013-11-08 04:17:00,27.7,10.0,31.72,SW,225,2.0,4.0,47,0.00,,,0.00,meteohub,2013-11-08 11:17:00,
2013-11-08 04:22:00,27.7,10.6,31.71,NW,315,2.0,4.0,48,0.00,,,0.00,meteohub,2013-11-08 11:22:00,
2013-11-08 04:27:00,28.9,12.6,31.71,NW,315,4.0,4.0,50,0.00,,,0.00,meteohub,2013-11-08 11:27:00,
2013-11-08 04:32:00,30.0,12.7,31.71,North,0,2.0,4.0,48,0.00,,,0.00,meteohub,2013-11-08 11:32:00,
2013-11-08 04:37:00,30.0,12.2,31.71,South,180,4.0,4.0,47,0.00,,,0.00,meteohub,2013-11-08 11:37:00,
2013-11-08 04:42:00,29.8,12.0,31.72,SW,225,0.0,4.0,47,0.00,,,0.00,meteohub,2013-11-08 11:42:00,
2013-11-08 04:47:00,29.8,12.0,31.72,NE,45,2.0,4.0,47,0.00,,,0.00,meteohub,2013-11-08 11:47:00,
2013-11-08 04:52:00,29.3,12.0,31.72,West,270,2.0,4.0,48,0.00,,,0.00,meteohub,2013-11-08 11:52:00,
2013-11-08 04:57:00,28.6,11.3,31.72,NW,315,4.0,4.0,48,0.00,,,0.00,meteohub,2013-11-08 11:57:00,
2013-11-08 05:02:00,28.4,11.7,31.72,North,0,3.0,4.0,49,0.00,,,0.00,meteohub,2013-11-08 12:02:00,
2013-11-08 05:07:00,28.4,11.7,31.72,North,0,3.0,4.0,49,0.00,,,0.00,meteohub,2013-11-08 12:07:00,
2013-11-08 05:12:00,28.8,12.0,31.72,West,270,3.0,4.0,49,0.00,,,0.00,meteohub,2013-11-08 12:12:00,
2013-11-08 05:17:00,28.8,11.5,31.73,West,270,2.0,4.0,48,0.00,,,0.00,meteohub,2013-11-08 12:17:00,
2013-11-08 05:22:00,29.1,11.8,31.73,North,0,0.0,4.0,48,0.00,,,0.00,meteohub,2013-11-08 12:22:00,
2013-11-08 05:27:00,29.5,11.7,31.73,South,180,2.0,4.0,47,0.00,,,0.00,meteohub,2013-11-08 12:27:00,
2013-11-08 05:32:00,29.3,11.5,31.73,North,0,3.0,4.0,47,0.00,,,0.00,meteohub,2013-11-08 12:32:00,
2013-11-08 05:37:00,29.3,11.1,31.73,East,90,2.0,4.0,46,0.00,,,0.00,meteohub,2013-11-08 12:37:00,
2013-11-08 05:42:00,29.3,11.1,31.73,West,270,0.0,4.0,46,0.00,,,0.00,meteohub,2013-11-08 12:42:00,
2013-11-08 05:47:00,29.8,11.7,31.73,West,270,0.0,4.0,46,0.00,,,0.00,meteohub,2013-11-08 12:47:00,
2013-11-08 05:52:00,30.2,10.9,31.73,NW,315,0.0,3.0,44,0.00,,,0.00,meteohub,2013-11-08 12:52:00,
2013-11-08 05:57:00,30.4,11.1,31.73,SW,225,0.0,4.0,44,0.00,,,0.00,meteohub,2013-11-08 12:57:00,
2013-11-08 06:02:00,30.2,10.9,31.73,South,180,1.0,4.0,44,0.00,,,0.00,meteohub,2013-11-08 13:02:00,
2013-11-08 06:07:00,30.0,10.2,31.73,WSW,248,3.0,4.0,43,0.00,,,0.00,meteohub,2013-11-08 13:07:00,
2013-11-08 06:12:00,29.7,9.3,31.73,West,270,0.0,3.0,42,0.00,,,0.00,meteohub,2013-11-08 13:12:00,
2013-11-08 06:17:00,29.5,9.1,31.73,SW,225,0.0,3.0,42,0.00,,,0.00,meteohub,2013-11-08 13:17:00,
2013-11-08 06:22:00,28.9,8.8,31.73,SW,225,2.0,3.0,42,0.00,,,0.00,meteohub,2013-11-08 13:22:00,
2013-11-08 06:27:00,28.8,8.6,31.73,SW,225,0.0,3.0,42,0.00,,,0.00,meteohub,2013-11-08 13:27:00,
2013-11-08 06:32:00,28.8,8.6,31.73,SW,225,0.0,3.0,42,0.00,,,0.00,meteohub,2013-11-08 13:32:00,
2013-11-08 06:37:00,28.9,8.2,31.74,NW,315,0.0,3.0,41,0.00,,,0.00,meteohub,2013-11-08 13:37:00,
2013-11-08 06:42:00,29.3,8.6,31.74,SW,225,0.0,0.0,41,0.00,,,0.00,meteohub,2013-11-08 13:42:00,
2013-11-08 06:47:00,29.8,9.0,31.74,SE,135,0.0,3.0,41,0.00,,,0.00,meteohub,2013-11-08 13:47:00,
2013-11-08 06:52:00,30.7,8.1,31.74,SW,225,0.0,3.0,38,0.00,,,0.00,meteohub,2013-11-08 13:52:00,
2013-11-08 06:57:00,31.1,7.9,31.74,SW,225,0.0,2.0,37,0.00,,,0.00,meteohub,2013-11-08 13:57:00,
2013-11-08 07:02:00,30.9,7.2,31.74,SW,225,0.0,2.0,36,0.00,,,0.00,meteohub,2013-11-08 14:02:00,
2013-11-08 07:07:00,30.9,7.2,31.74,SW,225,0.0,1.0,36,0.00,,,0.00,meteohub,2013-11-08 14:07:00,
2013-11-08 07:12:00,30.2,6.4,31.74,SW,225,1.0,2.0,36,0.00,,,0.00,meteohub,2013-11-08 14:12:00,
2013-11-08 07:17:00,30.6,6.8,31.74,NW,315,0.0,2.0,36,0.00,,,0.00,meteohub,2013-11-08 14:17:00,
2013-11-08 07:22:00,31.5,7.5,31.73,NE,45,0.0,2.0,36,0.00,,,0.00,meteohub,2013-11-08 14:22:00,
2013-11-08 07:27:00,32.2,7.5,31.74,West,270,2.0,2.0,35,0.00,,,0.00,meteohub,2013-11-08 14:27:00,
2013-11-08 07:32:00,32.4,7.7,31.74,NE,45,0.0,2.0,35,0.00,,,0.00,meteohub,2013-11-08 14:32:00,
2013-11-08 07:37:00,32.9,7.5,31.74,NW,315,2.0,2.0,34,0.00,,,0.00,meteohub,2013-11-08 14:37:00,
2013-11-08 07:42:00,33.4,8.1,31.74,North,0,0.0,2.0,34,0.00,,,0.00,meteohub,2013-11-08 14:42:00,
2013-11-08 07:47:00,33.8,7.0,31.74,NE,45,2.0,2.0,32,0.00,,,0.00,meteohub,2013-11-08 14:47:00,
2013-11-08 07:52:00,34.0,7.2,31.73,SW,225,2.0,2.0,32,0.00,,,0.00,meteohub,2013-11-08 14:52:00,
2013-11-08 07:57:00,34.9,8.1,31.73,NW,315,1.0,2.0,32,0.00,,,0.00,meteohub,2013-11-08 14:57:00,
2013-11-08 08:02:00,36.5,7.2,31.74,North,0,4.0,4.0,29,0.00,,,0.00,meteohub,2013-11-08 15:02:00,
2013-11-08 08:07:00,37.9,10.8,31.74,NE,45,0.0,4.0,32,0.00,,,0.00,meteohub,2013-11-08 15:07:00,
2013-11-08 08:12:00,39.0,10.9,31.74,West,270,2.0,4.0,31,0.00,,,0.00,meteohub,2013-11-08 15:12:00,
2013-11-08 08:17:00,39.9,10.9,31.74,NE,45,2.0,4.0,30,0.00,,,0.00,meteohub,2013-11-08 15:17:00,
2013-11-08 08:22:00,40.8,11.8,31.74,North,0,2.0,4.0,30,0.00,,,0.00,meteohub,2013-11-08 15:22:00,
2013-11-08 08:27:00,41.2,10.6,31.74,NNE,23,2.0,5.0,28,0.00,,,0.00,meteohub,2013-11-08 15:27:00,
2013-11-08 08:32:00,41.7,10.9,31.74,South,180,2.0,5.0,28,0.00,,,0.00,meteohub,2013-11-08 15:32:00,
2013-11-08 08:37:00,42.6,11.8,31.74,East,90,1.0,5.0,28,0.00,,,0.00,meteohub,2013-11-08 15:37:00,
2013-11-08 08:42:00,43.3,9.9,31.74,East,90,4.0,4.0,25,0.00,,,0.00,meteohub,2013-11-08 15:42:00,
2013-11-08 08:47:00,43.7,10.2,31.74,NW,315,1.0,5.0,25,0.00,,,0.00,meteohub,2013-11-08 15:47:00,
2013-11-08 08:52:00,44.2,10.6,31.74,NE,45,4.0,5.0,25,0.00,,,0.00,meteohub,2013-11-08 15:52:00,
2013-11-08 08:57:00,44.6,10.0,31.74,NE,45,4.0,5.0,24,0.00,,,0.00,meteohub,2013-11-08 15:57:00,
2013-11-08 09:02:00,45.0,10.4,31.74,NE,45,5.0,8.0,24,0.00,,,0.00,meteohub,2013-11-08 16:02:00,
2013-11-08 09:07:00,45.0,10.4,31.73,NE,45,5.0,8.0,24,0.00,,,0.00,meteohub,2013-11-08 16:07:00,
2013-11-08 09:12:00,46.2,11.5,31.73,North,0,2.0,8.0,24,0.00,,,0.00,meteohub,2013-11-08 16:12:00,
2013-11-08 09:17:00,46.9,13.8,31.73,SE,135,3.0,5.0,26,0.00,,,0.00,meteohub,2013-11-08 16:17:00,
2013-11-08 09:22:00,47.7,14.4,31.73,NW,315,4.0,5.0,26,0.00,,,0.00,meteohub,2013-11-08 16:22:00,
2013-11-08 09:27:00,47.7,13.5,31.73,West,270,2.0,5.0,25,0.00,,,0.00,meteohub,2013-11-08 16:27:00,
2013-11-08 09:32:00,48.2,13.1,31.73,SW,225,5.0,5.0,24,0.00,,,0.00,meteohub,2013-11-08 16:32:00,
2013-11-08 09:37:00,48.4,13.3,31.72,NE,45,3.0,7.0,24,0.00,,,0.00,meteohub,2013-11-08 16:37:00,
2013-11-08 09:42:00,48.4,13.3,31.72,South,180,2.0,7.0,24,0.00,,,0.00,meteohub,2013-11-08 16:42:00,
2013-11-08 09:47:00,48.4,13.3,31.71,North,0,4.0,7.0,24,0.00,,,0.00,meteohub,2013-11-08 16:47:00,
2013-11-08 09:52:00,48.6,13.5,31.71,SSE,158,11.0,11.0,24,0.00,,,0.00,meteohub,2013-11-08 16:52:00,
2013-11-08 09:57:00,48.9,13.6,31.71,SE,135,6.0,15.0,24,0.00,,,0.00,meteohub,2013-11-08 16:57:00,
2013-11-08 10:02:00,48.6,13.5,31.71,NE,45,6.0,15.0,24,0.00,,,0.00,meteohub,2013-11-08 17:02:00,
2013-11-08 10:07:00,48.4,13.3,31.71,NE,45,11.0,15.0,24,0.00,,,0.00,meteohub,2013-11-08 17:07:00,
2013-11-08 10:12:00,48.2,13.1,31.71,South,180,6.0,12.0,24,0.00,,,0.00,meteohub,2013-11-08 17:12:00,
2013-11-08 10:17:00,48.6,13.5,31.71,East,90,5.0,11.0,24,0.00,,,0.00,meteohub,2013-11-08 17:17:00,
2013-11-08 10:22:00,48.7,13.5,31.71,NNE,23,6.0,11.0,24,0.00,,,0.00,meteohub,2013-11-08 17:22:00,
2013-11-08 10:27:00,48.7,13.5,31.71,North,0,11.0,11.0,24,0.00,,,0.00,meteohub,2013-11-08 17:27:00,
2013-11-08 10:32:00,49.5,14.2,31.71,SW,225,8.0,17.0,24,0.00,,,0.00,meteohub,2013-11-08 17:32:00,
2013-11-08 10:37:00,50.0,13.6,31.70,SSW,203,9.0,17.0,23,0.00,,,0.00,meteohub,2013-11-08 17:37:00,
2013-11-08 10:42:00,50.9,14.4,31.70,NE,45,10.0,17.0,23,0.00,,,0.00,meteohub,2013-11-08 17:42:00,
2013-11-08 10:47:00,51.4,14.9,31.70,SW,225,5.0,11.0,23,0.00,,,0.00,meteohub,2013-11-08 17:47:00,
2013-11-08 10:52:00,52.3,14.5,31.70,West,270,5.0,14.0,22,0.00,,,0.00,meteohub,2013-11-08 17:52:00,
2013-11-08 10:57:00,52.2,14.4,31.70,West,270,23.0,23.0,22,0.00,,,0.00,meteohub,2013-11-08 17:57:00,
2013-11-08 11:02:00,52.0,14.4,31.70,SE,135,11.0,23.0,22,0.00,,,0.00,meteohub,2013-11-08 18:02:00,
2013-11-08 11:07:00,52.0,14.4,31.70,SE,135,11.0,23.0,22,0.00,,,0.00,meteohub,2013-11-08 18:07:00,
2013-11-08 11:12:00,52.5,14.7,31.70,South,180,12.0,23.0,22,0.00,,,0.00,meteohub,2013-11-08 18:12:00,
2013-11-08 11:17:00,52.9,15.1,31.70,SE,135,9.0,15.0,22,0.00,,,0.00,meteohub,2013-11-08 18:17:00,
2013-11-08 11:22:00,53.4,15.4,31.70,NE,45,8.0,15.0,22,0.00,,,0.00,meteohub,2013-11-08 18:22:00,
2013-11-08 11:28:00,53.4,15.4,31.70,NW,315,8.0,15.0,22,0.00,,,0.00,meteohub,2013-11-08 18:28:00,
2013-11-08 11:33:00,54.3,15.3,31.70,NW,315,6.0,15.0,21,0.00,,,0.00,meteohub,2013-11-08 18:33:00,
2013-11-08 11:38:00,54.7,15.4,31.69,South,180,4.0,15.0,21,0.00,,,0.00,meteohub,2013-11-08 18:38:00,
2013-11-08 11:43:00,54.0,14.9,31.69,NW,315,9.0,11.0,21,0.00,,,0.00,meteohub,2013-11-08 18:43:00,
2013-11-08 11:48:00,53.1,14.2,31.69,SW,225,6.0,18.0,21,0.00,,,0.00,meteohub,2013-11-08 18:48:00,
2013-11-08 11:53:00,52.5,14.7,31.69,SW,225,5.0,18.0,22,0.00,,,0.00,meteohub,2013-11-08 18:53:00,
2013-11-08 11:59:00,52.9,15.1,31.69,West,270,7.0,18.0,22,0.00,,,0.00,meteohub,2013-11-08 18:59:00,
2013-11-08 12:04:00,52.9,14.0,31.68,WNW,293,10.0,11.0,21,0.00,,,0.00,meteohub,2013-11-08 19:04:00,
2013-11-08 12:09:00,52.9,14.0,31.68,NW,315,8.0,11.0,21,0.00,,,0.00,meteohub,2013-11-08 19:09:00,
2013-11-08 12:14:00,52.5,13.6,31.68,NW,315,4.0,11.0,21,0.00,,,0.00,meteohub,2013-11-08 19:14:00,
2013-11-08 12:19:00,52.5,13.6,31.68,West,270,5.0,17.0,21,0.00,,,0.00,meteohub,2013-11-08 19:19:00,
2013-11-08 12:25:00,52.5,14.7,31.68,East,90,5.0,17.0,22,0.00,,,0.00,meteohub,2013-11-08 19:25:00,
2013-11-08 12:30:00,52.2,14.4,31.68,West,270,11.0,12.0,22,0.00,,,0.00,meteohub,2013-11-08 19:30:00,
2013-11-08 12:35:00,51.8,13.1,31.67,NW,315,6.0,12.0,21,0.00,,,0.00,meteohub,2013-11-08 19:35:00,
2013-11-08 12:40:00,51.6,15.1,31.68,NW,315,9.0,12.0,23,0.00,,,0.00,meteohub,2013-11-08 19:40:00,
2013-11-08 12:45:00,51.3,14.7,31.67,West,270,7.0,14.0,23,0.00,,,0.00,meteohub,2013-11-08 19:45:00,
2013-11-08 12:50:00,51.4,14.9,31.67,NNW,338,8.0,14.0,23,0.00,,,0.00,meteohub,2013-11-08 19:50:00,
2013-11-08 12:56:00,51.1,14.5,31.67,North,0,7.0,14.0,23,0.00,,,0.00,meteohub,2013-11-08 19:56:00,
2013-11-08 13:01:00,50.9,14.4,31.67,West,270,8.0,11.0,23,0.00,,,0.00,meteohub,2013-11-08 20:01:00,
2013-11-08 13:06:00,50.9,14.4,31.67,West,270,8.0,11.0,23,0.00,,,0.00,meteohub,2013-11-08 20:06:00,
2013-11-08 13:11:00,48.7,13.5,31.67,North,0,9.0,10.0,24,0.00,,,0.00,meteohub,2013-11-08 20:11:00,
2013-11-08 13:16:00,48.0,13.8,31.67,West,270,10.0,14.0,25,0.00,,,0.00,meteohub,2013-11-08 20:16:00,
2013-11-08 13:22:00,47.5,13.5,31.66,NW,315,9.0,14.0,25,0.00,,,0.00,meteohub,2013-11-08 20:22:00,
2013-11-08 13:27:00,47.5,13.5,31.67,West,270,8.0,11.0,25,0.00,,,0.00,meteohub,2013-11-08 20:27:00,
2013-11-08 13:32:00,47.1,13.1,31.67,WNW,293,9.0,11.0,25,0.00,,,0.00,meteohub,2013-11-08 20:32:00,
2013-11-08 13:37:00,47.3,13.3,31.67,West,270,7.0,12.0,25,0.00,,,0.00,meteohub,2013-11-08 20:37:00,
2013-11-08 13:42:00,48.0,13.8,31.67,SW,225,7.0,12.0,25,0.00,,,0.00,meteohub,2013-11-08 20:42:00,
2013-11-08 13:47:00,48.4,13.3,31.67,West,270,3.0,12.0,24,0.00,,,0.00,meteohub,2013-11-08 20:47:00,
2013-11-08 13:53:00,48.9,13.6,31.67,NW,315,5.0,8.0,24,0.00,,,0.00,meteohub,2013-11-08 20:53:00,
2013-11-08 13:58:00,49.5,14.2,31.67,West,270,8.0,8.0,24,0.00,,,0.00,meteohub,2013-11-08 20:58:00,
2013-11-08 14:03:00,49.8,14.5,31.68,SSW,203,8.0,14.0,24,0.00,,,0.00,meteohub,2013-11-08 21:03:00,
2013-11-08 14:08:00,50.2,13.8,31.68,SW,225,7.0,14.0,23,0.00,,,0.00,meteohub,2013-11-08 21:08:00,
2013-11-08 14:13:00,50.4,14.0,31.68,NW,315,8.0,14.0,23,0.00,,,0.00,meteohub,2013-11-08 21:13:00,
2013-11-08 14:18:00,50.4,14.0,31.68,West,270,11.0,11.0,23,0.00,,,0.00,meteohub,2013-11-08 21:18:00,
2013-11-08 14:24:00,50.4,14.0,31.68,SW,225,7.0,14.0,23,0.00,,,0.00,meteohub,2013-11-08 21:24:00,
2013-11-08 14:29:00,50.5,14.2,31.68,West,270,8.0,17.0,23,0.00,,,0.00,meteohub,2013-11-08 21:29:00,
2013-11-08 14:34:00,50.4,14.0,31.68,NW,315,10.0,17.0,23,0.00,,,0.00,meteohub,2013-11-08 21:34:00,
2013-11-08 14:39:00,50.2,13.8,31.68,NW,315,10.0,17.0,23,0.00,,,0.00,meteohub,2013-11-08 21:39:00,
2013-11-08 14:44:00,49.8,14.5,31.68,West,270,8.0,13.0,24,0.00,,,0.00,meteohub,2013-11-08 21:44:00,
2013-11-08 14:50:00,50.0,13.6,31.68,SW,225,7.0,13.0,23,0.00,,,0.00,meteohub,2013-11-08 21:50:00,
2013-11-08 14:55:00,50.0,13.6,31.68,NW,315,10.0,13.0,23,0.00,,,0.00,meteohub,2013-11-08 21:55:00,
2013-11-08 15:00:00,49.6,14.4,31.69,SW,225,14.0,14.0,24,0.00,,,0.00,meteohub,2013-11-08 22:00:00,
2013-11-08 15:05:00,49.6,14.4,31.68,SW,225,14.0,14.0,24,0.00,,,0.00,meteohub,2013-11-08 22:05:00,
2013-11-08 15:10:00,48.9,13.6,31.69,West,270,8.0,14.0,24,0.00,,,0.00,meteohub,2013-11-08 22:10:00,
2013-11-08 15:15:00,48.4,13.3,31.69,NW,315,9.0,14.0,24,0.00,,,0.00,meteohub,2013-11-08 22:15:00,
2013-11-08 15:21:00,47.7,13.5,31.69,NW,315,11.0,14.0,25,0.00,,,0.00,meteohub,2013-11-08 22:21:00,
2013-11-08 15:26:00,47.3,13.3,31.69,SW,225,8.0,12.0,25,0.00,,,0.00,meteohub,2013-11-08 22:26:00,
2013-11-08 15:31:00,46.9,12.9,31.69,West,270,9.0,11.0,25,0.00,,,0.00,meteohub,2013-11-08 22:31:00,
2013-11-08 15:36:00,46.6,12.6,31.69,WNW,293,10.0,11.0,25,0.00,,,0.00,meteohub,2013-11-08 22:36:00,
2013-11-08 15:41:00,46.2,8.4,31.69,West,270,5.0,10.0,21,0.00,,,0.00,meteohub,2013-11-08 22:41:00,
2013-11-08 15:47:00,45.7,7.9,31.69,NW,315,6.0,10.0,21,0.00,,,0.00,meteohub,2013-11-08 22:47:00,
2013-11-08 15:52:00,45.5,7.9,31.70,West,270,6.0,10.0,21,0.00,,,0.00,meteohub,2013-11-08 22:52:00,
2013-11-08 15:57:00,45.1,7.5,31.70,NW,315,4.0,8.0,21,0.00,,,0.00,meteohub,2013-11-08 22:57:00,
2013-11-08 16:02:00,45.0,8.4,31.70,West,270,8.0,8.0,22,0.00,,,0.00,meteohub,2013-11-08 23:02:00,
2013-11-08 16:07:00,44.6,8.1,31.70,NW,315,8.0,8.0,22,0.00,,,0.00,meteohub,2013-11-08 23:07:00,
2013-11-08 16:12:00,44.2,8.8,31.70,West,270,4.0,8.0,23,0.00,,,0.00,meteohub,2013-11-08 23:12:00,
2013-11-08 16:17:00,43.9,8.4,31.70,NW,315,4.0,8.0,23,0.00,,,0.00,meteohub,2013-11-08 23:17:00,
2013-11-08 16:22:00,43.2,8.8,31.70,WSW,248,4.0,8.0,24,0.00,,,0.00,meteohub,2013-11-08 23:22:00,
2013-11-08 16:27:00,42.6,9.3,31.70,West,270,3.0,8.0,25,0.00,,,0.00,meteohub,2013-11-08 23:27:00,
2013-11-08 16:32:00,41.9,9.5,31.70,SW,225,0.0,5.0,26,0.00,,,0.00,meteohub,2013-11-08 23:32:00,
2013-11-08 16:37:00,41.0,8.8,31.70,South,180,0.0,5.0,26,0.00,,,0.00,meteohub,2013-11-08 23:37:00,
2013-11-08 16:42:00,40.3,9.0,31.70,SW,225,2.0,5.0,27,0.00,,,0.00,meteohub,2013-11-08 23:42:00,
2013-11-08 16:47:00,39.9,8.6,31.70,South,180,1.0,4.0,27,0.00,,,0.00,meteohub,2013-11-08 23:47:00,
2013-11-08 16:52:00,39.4,8.2,31.70,South,180,0.0,4.0,27,0.00,,,0.00,meteohub,2013-11-08 23:52:00,
2013-11-08 16:57:00,38.8,8.4,31.70,South,180,0.0,4.0,28,0.00,,,0.00,meteohub,2013-11-08 23:57:00,
2013-11-08 17:02:00,38.5,8.2,31.70,SW,225,2.0,2.0,28,0.00,,,0.00,meteohub,2013-11-09 00:02:00,
2013-11-08 17:07:00,38.5,8.2,31.70,SW,225,2.0,2.0,28,0.00,,,0.00,meteohub,2013-11-09 00:07:00,
2013-11-08 17:12:00,37.6,8.2,31.71,West,270,0.0,3.0,29,0.00,,,0.00,meteohub,2013-11-09 00:12:00,
2013-11-08 17:17:00,37.2,5.5,31.71,South,180,0.0,3.0,26,0.00,,,0.00,meteohub,2013-11-09 00:17:00,
2013-11-08 17:22:00,36.1,4.5,31.71,SW,225,2.0,3.0,26,0.00,,,0.00,meteohub,2013-11-09 00:22:00,
2013-11-08 17:27:00,35.2,5.4,31.72,SW,225,1.0,2.0,28,0.00,,,0.00,meteohub,2013-11-09 00:27:00,
2013-11-08 17:32:00,34.7,5.7,31.72,West,270,2.0,2.0,29,0.00,,,0.00,meteohub,2013-11-09 00:32:00,
2013-11-08 17:37:00,34.3,7.5,31.72,West,270,1.0,3.0,32,0.00,,,0.00,meteohub,2013-11-09 00:37:00,
2013-11-08 17:42:00,33.6,7.5,31.72,West,270,3.0,3.0,33,0.00,,,0.00,meteohub,2013-11-09 00:42:00,
2013-11-08 17:47:00,33.4,8.1,31.72,SW,225,2.0,3.0,34,0.00,,,0.00,meteohub,2013-11-09 00:47:00,
2013-11-08 17:52:00,33.1,8.4,31.72,West,270,2.0,3.0,35,0.00,,,0.00,meteohub,2013-11-09 00:52:00,
2013-11-08 17:57:00,32.9,8.8,31.72,West,270,1.0,3.0,36,0.00,,,0.00,meteohub,2013-11-09 00:57:00,
2013-11-08 18:02:00,32.7,9.3,31.72,SW,225,0.0,2.0,37,0.00,,,0.00,meteohub,2013-11-09 01:02:00,
2013-11-08 18:07:00,32.5,10.4,31.73,SW,225,0.0,2.0,39,0.00,,,0.00,meteohub,2013-11-09 01:07:00,
2013-11-08 18:12:00,32.4,10.2,31.73,SE,135,2.0,2.0,39,0.00,,,0.00,meteohub,2013-11-09 01:12:00,
2013-11-08 18:17:00,32.0,10.9,31.73,SW,225,2.0,2.0,41,0.00,,,0.00,meteohub,2013-11-09 01:17:00,
2013-11-08 18:22:00,31.5,11.5,31.73,SE,135,1.0,3.0,43,0.00,,,0.00,meteohub,2013-11-09 01:22:00,
2013-11-08 18:27:00,31.8,12.4,31.73,SE,135,1.0,3.0,44,0.00,,,0.00,meteohub,2013-11-09 01:27:00,
2013-11-08 18:32:00,32.0,12.6,31.73,South,180,1.0,4.0,44,0.00,,,0.00,meteohub,2013-11-09 01:32:00,
2013-11-08 18:37:00,31.6,12.2,31.73,SSE,158,1.0,4.0,44,0.00,,,0.00,meteohub,2013-11-09 01:37:00,
2013-11-08 18:42:00,31.5,12.6,31.73,SW,225,2.0,4.0,45,0.00,,,0.00,meteohub,2013-11-09 01:42:00,
2013-11-08 18:47:00,31.1,11.7,31.74,SW,225,0.0,4.0,44,0.00,,,0.00,meteohub,2013-11-09 01:47:00,
2013-11-08 18:52:00,30.9,12.0,31.74,SW,225,0.0,3.0,45,0.00,,,0.00,meteohub,2013-11-09 01:52:00,
2013-11-08 18:57:00,30.9,12.0,31.74,East,90,1.0,2.0,45,0.00,,,0.00,meteohub,2013-11-09 01:57:00,
2013-11-08 19:02:00,31.1,12.2,31.74,NE,45,0.0,2.0,45,0.00,,,0.00,meteohub,2013-11-09 02:02:00,
2013-11-08 19:07:00,31.1,12.2,31.74,NE,45,0.0,2.0,45,0.00,,,0.00,meteohub,2013-11-09 02:07:00,
2013-11-08 19:12:00,32.2,13.3,31.74,SE,135,2.0,2.0,45,0.00,,,0.00,meteohub,2013-11-09 02:12:00,
2013-11-08 19:17:00,32.5,13.6,31.74,North,0,4.0,4.0,45,0.00,,,0.00,meteohub,2013-11-09 02:17:00,
2013-11-08 19:22:00,32.4,13.5,31.73,NE,45,2.0,4.0,45,0.00,,,0.00,meteohub,2013-11-09 02:22:00,
2013-11-08 19:27:00,32.4,13.8,31.74,SE,135,2.0,4.0,46,0.00,,,0.00,meteohub,2013-11-09 02:27:00,
2013-11-08 19:32:00,32.4,13.8,31.74,North,0,2.0,4.0,46,0.00,,,0.00,meteohub,2013-11-09 02:32:00,
2013-11-08 19:37:00,32.2,13.6,31.74,SW,225,2.0,3.0,46,0.00,,,0.00,meteohub,2013-11-09 02:37:00,
2013-11-08 19:42:00,31.8,13.8,31.74,SW,225,2.0,3.0,47,0.00,,,0.00,meteohub,2013-11-09 02:42:00,
2013-11-08 19:47:00,31.6,13.6,31.74,SW,225,2.0,2.0,47,0.00,,,0.00,meteohub,2013-11-09 02:47:00,
2013-11-08 19:52:00,31.3,13.8,31.75,North,0,2.0,3.0,48,0.00,,,0.00,meteohub,2013-11-09 02:52:00,
2013-11-08 19:57:00,30.9,13.5,31.75,West,270,2.0,4.0,48,0.00,,,0.00,meteohub,2013-11-09 02:57:00,
2013-11-08 20:02:00,30.7,13.8,31.75,SW,225,2.0,4.0,49,0.00,,,0.00,meteohub,2013-11-09 03:02:00,
2013-11-08 20:07:00,30.6,13.6,31.75,SW,225,2.0,4.0,49,0.00,,,0.00,meteohub,2013-11-09 03:07:00,
2013-11-08 20:12:00,30.2,13.3,31.75,SE,135,1.0,4.0,49,0.00,,,0.00,meteohub,2013-11-09 03:12:00,
2013-11-08 20:17:00,29.8,13.5,31.75,SW,225,1.0,2.0,50,0.00,,,0.00,meteohub,2013-11-09 03:17:00,
2013-11-08 20:22:00,29.7,13.3,31.75,SW,225,0.0,3.0,50,0.00,,,0.00,meteohub,2013-11-09 03:22:00,
2013-11-08 20:27:00,29.5,13.1,31.76,SW,225,1.0,3.0,50,0.00,,,0.00,meteohub,2013-11-09 03:27:00,
2013-11-08 20:32:00,29.3,13.5,31.76,SW,225,0.0,2.0,51,0.00,,,0.00,meteohub,2013-11-09 03:32:00,
2013-11-08 20:37:00,29.1,13.3,31.76,West,270,0.0,2.0,51,0.00,,,0.00,meteohub,2013-11-09 03:37:00,
2013-11-08 20:42:00,28.9,13.1,31.77,SW,225,1.0,2.0,51,0.00,,,0.00,meteohub,2013-11-09 03:42:00,
2013-11-08 20:47:00,28.8,12.9,31.77,SW,225,2.0,2.0,51,0.00,,,0.00,meteohub,2013-11-09 03:47:00,
2013-11-08 20:52:00,28.8,13.3,31.77,SW,225,0.0,2.0,52,0.00,,,0.00,meteohub,2013-11-09 03:52:00,
2013-11-08 20:57:00,28.6,13.1,31.77,SW,225,0.0,2.0,52,0.00,,,0.00,meteohub,2013-11-09 03:57:00,
2013-11-08 21:02:00,28.6,13.1,31.77,SW,225,2.0,2.0,52,0.00,,,0.00,meteohub,2013-11-09 04:02:00,
2013-11-08 21:07:00,28.6,13.1,31.77,SW,225,2.0,2.0,52,0.00,,,0.00,meteohub,2013-11-09 04:07:00,
2013-11-08 21:12:00,28.4,13.1,31.77,SW,225,1.0,2.0,52,0.00,,,0.00,meteohub,2013-11-09 04:12:00,
2013-11-08 21:17:00,28.6,13.1,31.78,West,270,0.0,2.0,52,0.00,,,0.00,meteohub,2013-11-09 04:17:00,
2013-11-08 21:22:00,28.6,13.1,31.78,SW,225,0.0,2.0,52,0.00,,,0.00,meteohub,2013-11-09 04:22:00,
2013-11-08 21:27:00,28.8,13.8,31.78,NE,45,0.0,2.0,53,0.00,,,0.00,meteohub,2013-11-09 04:27:00,
2013-11-08 21:32:00,28.9,13.5,31.78,SW,225,2.0,2.0,52,0.00,,,0.00,meteohub,2013-11-09 04:32:00,
2013-11-08 21:37:00,28.4,13.1,31.78,North,0,1.0,2.0,52,0.00,,,0.00,meteohub,2013-11-09 04:37:00,
2013-11-08 21:42:00,28.0,11.3,31.78,West,270,2.0,2.0,49,0.00,,,0.00,meteohub,2013-11-09 04:42:00,
2013-11-08 21:47:00,27.9,11.1,31.78,SW,225,1.0,2.0,49,0.00,,,0.00,meteohub,2013-11-09 04:47:00,
2013-11-08 21:52:00,27.7,11.5,31.78,SW,225,0.0,2.0,50,0.00,,,0.00,meteohub,2013-11-09 04:52:00,
2013-11-08 21:57:00,27.5,11.3,31.79,SW,225,0.0,2.0,50,0.00,,,0.00,meteohub,2013-11-09 04:57:00,
2013-11-08 22:01:00,27.0,10.8,31.79,West,270,1.0,2.0,50,0.00,,,0.00,meteohub,2013-11-09 05:01:00,
2013-11-08 22:02:00,27.0,11.3,31.79,West,270,1.0,2.0,51,0.00,,,0.00,meteohub,2013-11-09 05:02:00,
2013-11-08 22:04:00,27.0,11.3,31.79,SW,225,1.0,2.0,51,0.00,,,0.00,meteohub,2013-11-09 05:04:00,
2013-11-08 22:05:00,27.0,11.3,31.79,SW,225,1.0,2.0,51,0.00,,,0.00,meteohub,2013-11-09 05:05:00,
2013-11-08 22:06:00,27.1,11.5,31.79,SW,225,2.0,2.0,51,0.00,,,0.00,meteohub,2013-11-09 05:06:00,
2013-11-08 22:12:00,27.0,11.3,31.79,West,270,2.0,2.0,51,0.00,,,0.00,meteohub,2013-11-09 05:12:00,
2013-11-08 22:17:00,26.8,11.1,31.79,SW,225,0.0,2.0,51,0.00,,,0.00,meteohub,2013-11-09 05:17:00,
2013-11-08 22:22:00,27.1,11.8,31.79,SW,225,2.0,2.0,52,0.00,,,0.00,meteohub,2013-11-09 05:22:00,
2013-11-08 22:27:00,27.1,11.5,31.79,SW,225,0.0,2.0,51,0.00,,,0.00,meteohub,2013-11-09 05:27:00,
2013-11-08 22:32:00,26.8,11.1,31.79,SW,225,2.0,2.0,51,0.00,,,0.00,meteohub,2013-11-09 05:32:00,
2013-11-08 22:37:00,26.4,11.1,31.79,SW,225,1.0,3.0,52,0.00,,,0.00,meteohub,2013-11-09 05:37:00,
2013-11-08 22:42:00,26.2,10.9,31.79,West,270,3.0,3.0,52,0.00,,,0.00,meteohub,2013-11-09 05:42:00,
2013-11-08 22:47:00,26.1,11.3,31.79,SW,225,1.0,3.0,53,0.00,,,0.00,meteohub,2013-11-09 05:47:00,
2013-11-08 22:52:00,25.9,11.1,31.79,South,180,1.0,3.0,53,0.00,,,0.00,meteohub,2013-11-09 05:52:00,
2013-11-08 22:57:00,25.9,11.1,31.79,SW,225,2.0,3.0,53,0.00,,,0.00,meteohub,2013-11-09 05:57:00,
2013-11-08 23:02:00,25.9,11.1,31.79,West,270,2.0,2.0,53,0.00,,,0.00,meteohub,2013-11-09 06:02:00,
2013-11-08 23:07:00,25.9,11.1,31.79,West,270,2.0,2.0,53,0.00,,,0.00,meteohub,2013-11-09 06:07:00,
2013-11-08 23:12:00,25.7,10.9,31.79,NW,315,2.0,3.0,53,0.00,,,0.00,meteohub,2013-11-09 06:12:00,
2013-11-08 23:17:00,25.9,11.1,31.79,West,270,1.0,3.0,53,0.00,,,0.00,meteohub,2013-11-09 06:17:00,
2013-11-08 23:22:00,25.7,10.9,31.79,SW,225,2.0,3.0,53,0.00,,,0.00,meteohub,2013-11-09 06:22:00,
2013-11-08 23:27:00,25.5,10.4,31.80,West,270,0.0,2.0,52,0.00,,,0.00,meteohub,2013-11-09 06:27:00,
2013-11-08 23:32:00,25.2,10.4,31.79,West,270,2.0,2.0,53,0.00,,,0.00,meteohub,2013-11-09 06:32:00,
2013-11-08 23:37:00,25.0,10.2,31.80,SW,225,2.0,2.0,53,0.00,,,0.00,meteohub,2013-11-09 06:37:00,
2013-11-08 23:42:00,24.6,10.8,31.79,SW,225,2.0,2.0,55,0.00,,,0.00,meteohub,2013-11-09 06:42:00,
2013-11-08 23:47:00,24.4,10.6,31.80,West,270,2.0,2.0,55,0.00,,,0.00,meteohub,2013-11-09 06:47:00,
2013-11-08 23:52:00,24.4,10.6,31.80,SW,225,1.0,2.0,55,0.00,,,0.00,meteohub,2013-11-09 06:52:00,
2013-11-08 23:57:00,24.3,10.4,31.80,SW,225,1.0,2.0,55,0.00,,,0.00,meteohub,2013-11-09 06:57:00,